DW7003 Weather Reports


Display with metric or nautical units.
time (UTC)temp
F
wind
direction
speed
MPH
gust
MPH
rain 1hr
in
rain 24hr
in
rain mn
in
humidity
%
barometer
mb
20260503203007 60 292 0.0 8.0 0.00 0.00 0.00 32 1011.0
20260503201507 60 148 1.0 13.0 0.00 0.00 0.00 34 1011.2
20260503200006 60 40 0.0 4.0 0.00 0.00 0.00 34 1011.2
20260503194504 61 119 2.0 17.0 0.00 0.00 0.00 34 1011.5
20260503193002 60 92 0.0 6.0 0.00 0.00 0.00 39 1011.5
20260503191502 59 9 0.0 7.0 0.00 0.00 0.00 35 1011.8
20260503190056 58 93 0.0 6.0 0.00 0.00 0.00 39 1011.9
20260503184616 57 316 1.0 12.0 0.00 0.00 0.00 37 1012.0
20260503183054 57 92 0.0 8.0 0.00 0.00 0.00 40 1012.2
20260503181611 56 336 0.0 5.0 0.00 0.00 0.00 39 1012.2
20260503180111 56 355 0.0 4.0 0.00 0.00 0.00 42 1012.3
20260503174557 57 5 0.0 9.0 0.00 0.00 0.00 42 1012.3
20260503173101 57 134 2.0 11.0 0.00 0.00 0.00 38 1012.4
20260503171551 55 340 0.0 5.0 0.00 0.00 0.00 41 1012.3
20260503081542 48 99 0.0 0.0 0.00 0.00 0.00 54 1009.7
20260503071536 50 100 0.0 2.0 0.00 0.00 0.00 52 1009.8
20260503054521 52 109 0.0 1.0 0.00 0.00 0.00 49 1010.2
20260503053020 52 110 0.0 0.0 0.00 0.00 0.00 48 1010.4
20260503051532 52 110 0.0 2.0 0.00 0.00 0.00 49 1010.3
20260503050017 52 113 0.0 0.0 0.00 0.00 0.00 50 1010.3
20260503044515 52 113 0.0 1.0 0.00 0.00 0.00 50 1010.6
20260503043014 52 113 0.0 1.0 0.00 0.00 0.00 51 1010.8
20260503041511 52 113 0.0 0.0 0.00 0.00 0.00 54 1010.9
20260503040008 52 113 0.0 0.0 0.00 0.00 0.00 56 1010.9
20260503034508 52 113 0.0 0.0 0.00 0.00 0.00 57 1010.6
20260503033012 52 113 0.0 0.0 0.00 0.00 0.00 58 1010.9
20260503031507 52 113 0.0 0.0 0.00 0.00 0.00 57 1010.8
20260503030130 52 113 0.0 0.0 0.00 0.00 0.00 59 1010.7
20260503024505 52 113 0.0 0.0 0.00 0.00 0.00 60 1010.5
20260503023004 52 113 0.0 0.0 0.00 0.00 0.00 64 1010.7
20260503021504 52 113 0.0 0.0 0.00 0.00 0.00 66 1010.9
20260503020003 52 113 0.0 0.0 0.00 0.00 0.00 72 1010.7
20260503014502 53 113 0.0 0.0 0.00 0.00 0.00 78 1010.9
20260503013002 53 113 0.0 0.0 0.00 0.00 0.00 78 1010.9
20260503011506 53 113 0.0 0.0 0.00 0.00 0.00 77 1010.9
20260503010001 53 113 0.0 0.0 0.00 0.00 0.00 76 1010.7
20260503004600 53 113 0.0 0.0 0.00 0.00 0.00 76 1010.5
20260503003118 54 113 0.0 0.0 0.00 0.00 0.00 75 1010.4
20260503001600 54 113 0.0 0.0 0.00 0.00 0.00 75 1010.2
20260503000059 55 113 0.0 0.0 0.00 0.00 0.00 73 1010.3
20260502234559 56 113 0.0 0.0 0.00 0.00 0.00 72 1010.4
20260502233100 56 113 0.0 0.0 0.00 0.00 0.00 71 1010.4
20260502231606 56 113 0.0 0.0 0.00 0.00 0.00 69 1010.3
20260502230057 57 113 0.0 0.0 0.00 0.00 0.00 68 1010.4
20260502224556 57 113 0.0 0.0 0.00 0.00 0.00 67 1010.1
20260502223056 58 113 0.0 0.0 0.00 0.00 0.00 68 1010.1
20260502221556 58 113 0.0 3.0 0.00 0.00 0.00 68 1010.1
20260502220056 58 113 0.0 1.0 0.00 0.00 0.00 67 1009.9
20260502214558 58 113 0.0 0.0 0.00 0.00 0.00 68 1010.1
20260502213054 58 113 0.0 0.0 0.00 0.00 0.00 67 1010.1
20260502211554 58 113 0.0 0.0 0.00 0.00 0.00 67 1009.9
20260502210052 58 113 0.0 1.0 0.00 0.00 0.00 66 1009.7
20260502204607 59 113 0.0 0.0 0.00 0.00 0.00 63 1009.7